Location: Broek
(53.2737°N, 5.9967°E)
Time: 20:59:53
(UTC+00:00)

Cosmos 220 Rocket - Pass Details

Date: 10 October 2024
Orbit: 553 x 590 km, 74.0° (Epoch: 10 November)

Event Time Altitude Azimuth Distance (km) Brightness Sun altitude
Rises 17:52:00 0° 186° (S) 2,816 7.5 -10.0°
Reaches altitude 10° 17:54:16 10° 179° (S) 1,923 6.6 -10.3°
Maximum altitude 17:58:21 44° 108° (ESE) 832 4.3 -10.9°
Drops below altitude 10° 18:02:28 10° 36° (NE) 1,942 6.3 -11.6°
Sets 18:04:47 0° 30° (NNE) 2,848 7.2 -11.9°
